[[{"header":{"parameterUnit":"m.s-1","parameterCategory":1,"la1":30.2991,"la2":30.254,"lo1":-89.0895,"lo2":-89.0444,"dy":0.0017,"dx":0.0017,"nx":28,"ny":28,"refTime":"2023-07-22T21:00:00:Z","depth":0,"parameterNumber":2,"parameterNumberName":"U-component_of_WINDS"},"data":[0,0,0,0,0,0,0,0,0,0,0,0,0,0,0,0,0,0,0,0,0,0,0,0,0,0,0,0,0,0,0,0,0,0,0,0,0,0,0,0,0,0,0,0,0,0,0,0,0,0,0,0,0,0,0,0,0,0,2.2819,2.2822,0,2.3047,2.3049,2.3052,2.3093,2.3091,2.3089,2.3087,2.3323,2.333,2.3338,0,0,0,0,0,0,0,0,0,0,0,0,0,2.2423,2.243,2.2819,2.2822,2.2825,2.3046,2.3049,2.3052,2.3093,2.3091,2.3089,2.3086,2.332,2.3329,2.3339,0,0,0,0,0,0,0,0,0,0,0,0,0,2.2617,2.2432,2.2819,2.2872,2.2879,2.3046,2.3049,2.3053,2.3094,2.3091,2.3088,2.3085,2.3317,2.3328,2.334,2.3471,0,0,2.3377,2.3382,0,0,0,0,0,0,0,0,2.2606,2.2632,2.2861,2.2868,2.2877,2.3038,2.2996,2.3193,2.3094,2.3012,2.3087,2.3084,2.323,2.3249,2.3298,2.3482,2.3492,2.3378,2.3385,2.3391,2.3394,0,0,0,0,0,0,0,2.2593,2.2622,2.2909,2.2864,2.2874,2.2885,2.291,2.3034,2.3134,2.3019,2.3023,2.3049,2.3234,2.3287,2.3304,2.3495,2.3378,2.3388,2.3396,2.3401,2.3798,2.3801,0,0,0,0,0,0,2.2569,2.2611,2.2902,2.2916,2.2732,2.2895,2.2922,2.2989,2.3133,2.3152,2.3051,2.305,2.3267,2.329,2.3313,2.3475,2.339,2.3402,2.3409,2.3795,2.3799,2.3803,0,0,0,0,0,0,2.2561,2.2595,2.2893,2.2765,2.2803,2.2904,2.298,2.2995,2.3048,2.3157,2.3176,2.3086,2.3266,2.3296,2.3431,2.3484,2.3407,2.3418,2.3791,2.3796,2.3801,2.3801,0,0,0,0,0,0,2.2549,2.2592,2.2641,2.2765,2.281,2.3007,2.2983,2.3002,2.3068,2.3069,2.3195,2.3213,2.3266,2.3413,2.3443,2.3499,2.3427,2.3787,2.3793,2.3799,2.3796,2.3805,2.3812,0,0,0,0,0,2.2535,2.2633,2.2644,2.2679,2.2874,2.301,2.3035,2.3094,2.3072,2.3124,2.3194,2.3209,2.3473,2.3426,2.3461,2.3521,2.3784,2.3791,2.3799,2.3793,2.3803,2.3812,0,0,0,0,0,0,2.2514,2.265,2.2664,2.2805,2.2895,2.3016,2.3083,2.3103,2.3202,2.3199,2.3268,2.3296,2.3428,2.3488,2.3434,2.3655,2.3627,2.3642,2.3611,2.3622,2.3629,2.3612,2.3437,0,0,0,0,0,2.2525,2.2623,2.2737,2.285,2.2895,2.2981,2.3042,2.3079,2.3176,2.3215,2.3295,2.339,2.3494,2.3561,2.3663,2.3805,2.3834,2.3864,2.3872,2.3878,2.389,2.397,2.3984,2.3827,2.3827,2.3827,0,0,2.255,2.2637,2.2694,2.2848,2.2923,2.3023,2.3013,2.312,2.3195,2.3232,2.3364,2.3426,2.3536,2.3676,2.3741,2.373,2.3939,2.3887,2.3891,2.39,2.3979,2.3994,2.4007,2.3832,2.3832,2.3831,0,0,2.2647,2.2722,2.2825,2.29,2.3012,2.3069,2.3094,2.3212,2.3255,2.3389,2.3418,2.351,2.3688,2.3765,2.3827,2.3954,2.3971,2.3985,2.4027,2.4104,2.4116,2.4128,2.4173,2.4188,2.3997,2.3997,2.3997,0,2.2664,2.2816,2.2875,2.2981,2.3048,2.3085,2.319,2.326,2.34,2.3446,2.3432,2.3656,2.3733,2.3891,2.3921,2.3971,2.4002,2.3971,2.411,2.4122,2.4133,2.4177,2.4194,2.3998,2.3998,2.3998,2.3997,0,2.2831,2.2936,2.3006,2.3139,2.3214,2.3319,2.3395,2.3464,2.3495,2.3553,2.369,2.3783,2.3904,2.3945,2.3976,2.4108,2.4097,2.4095,2.4069,2.4148,2.419,2.4208,2.3999,2.3999,2.3998,2.3998,0,0,2.2921,2.3086,2.3111,2.3172,2.3299,2.3382,2.3488,2.3606,2.3664,2.376,2.3852,2.4002,2.4001,2.4072,2.4113,2.418,2.4275,2.417,2.4174,2.4186,2.4425,2.4425,2.4444,2.4287,2.4291,2.4293,2.4416,0,2.3033,2.3223,2.328,2.344,2.3538,2.3574,2.3668,2.3756,2.3814,2.3906,2.397,2.4075,2.4066,2.4109,2.4178,2.4248,2.4323,2.424,2.4374,2.4378,2.4344,2.4466,2.4467,2.4578,2.4433,2.4436,2.4438,0,2.3188,2.3286,2.3455,2.357,2.3613,2.3696,2.3809,2.3896,2.3998,2.4035,2.4114,2.4149,2.4263,2.423,2.4388,2.433,2.4388,2.4431,2.4437,2.4451,2.4412,2.4484,2.4615,2.4631,2.4465,2.4462,2.4461,0,2.3236,2.341,2.3534,2.3586,2.3723,2.378,2.384,2.3939,2.4006,2.4105,2.415,2.4261,2.4322,2.4408,2.4473,2.4443,2.4625,2.4598,2.466,2.4658,2.4696,2.4693,2.4838,2.4734,2.4734,2.4734,2.4733,0,2.3355,2.3457,2.3558,2.3634,2.3749,2.3815,2.3928,2.399,2.4077,2.4167,2.4206,2.429,2.437,2.4464,2.4516,2.4639,2.4666,2.47,2.4713,2.4697,2.4692,2.4735,2.4729,2.4738,2.4737,2.4736,2.4735,0,2.3428,2.3499,2.3637,2.3755,2.3787,2.3867,2.3969,2.4045,2.4104,2.4217,2.4247,2.4341,2.4454,2.4527,2.4671,2.4706,2.4841,2.4851,2.4806,2.4812,2.487,2.4863,2.5048,2.5075,2.4952,2.4953,2.4954,0,2.3499,2.3578,2.3705,2.3767,2.3827,2.3927,2.3996,2.4063,2.4133,2.4255,2.4317,2.4432,2.4528,2.4707,2.4789,2.49,2.4913,2.497,2.493,2.4911,2.4914,2.4908,2.4917,2.4976,2.4977,2.4978,2.4979,0,2.3617,2.3648,2.3745,2.3855,2.3935,2.4025,2.4115,2.4164,2.4248,2.4325,2.444,2.4515,2.4662,2.4777,2.4895,2.4958,2.4983,2.4991,2.5011,2.4995,2.4966,2.4982,2.4823,2.4986,2.4986,2.4985,2.4985,2.4984,2.3691,2.3763,2.3863,2.397,2.4045,2.4128,2.4205,2.4274,2.4371,2.4495,2.453,2.465,2.4751,2.4912,2.4978,2.5074,2.5067,2.5096,2.5104,2.511,2.511,2.4951,2.5096,2.5096,2.5096,2.5096,2.5095,0,2.3811,2.3877,2.3975,2.4099,2.4183,2.4198,2.4299,2.4369,2.4474,2.4565,2.4659,2.4792,2.4903,2.4993,2.5108,2.5168,2.5182,2.5196,2.5192,2.5206,2.511,2.5081,2.5182,2.5182,2.5182,2.5182,2.5182,2.5182,2.3883,2.4006,2.4049,2.4209,2.4276,2.4393,2.4449,2.4527,2.46,2.4746,2.4839,2.4896,2.4988,2.5109,2.5213,2.5236,2.5277,2.5288,2.5314,2.5223,2.5213,2.5204,2.5177,2.5296,2.5297,2.5402,2.5403,2.5404]},{"header":{"parameterUnit":"m.s-1","parameterCategory":1,"la1":30.2991,"la2":30.254,"lo1":-89.0895,"lo2":-89.0444,"dy":0.0017,"dx":0.0017,"nx":28,"ny":28,"refTime":"2023-07-22T21:00:00:Z","depth":0,"parameterNumber":3,"parameterNumberName":"V-component_of_WINDS"},"data":[0,0,0,0,0,0,0,0,0,0,0,0,0,0,0,0,0,0,0,0,0,0,0,0,0,0,0,0,0,0,0,0,0,0,0,0,0,0,0,0,0,0,0,0,0,0,0,0,0,0,0,0,0,0,0,0,0,0,-0.4,-0.4,0,-0.4003,-0.4003,-0.4003,-0.4015,-0.4016,-0.4016,-0.4016,-0.4019,-0.4019,-0.4019,0,0,0,0,0,0,0,0,0,0,0,0,0,-0.4008,-0.4008,-0.4,-0.4,-0.4,-0.4003,-0.4003,-0.4003,-0.4015,-0.4016,-0.4016,-0.4016,-0.402,-0.4019,-0.4019,0,0,0,0,0,0,0,0,0,0,0,0,0,-0.4007,-0.4008,-0.4,-0.4007,-0.4007,-0.4003,-0.4003,-0.4003,-0.4015,-0.4016,-0.4016,-0.4016,-0.402,-0.4019,-0.4019,-0.4009,0,0,-0.4018,-0.4018,0,0,0,0,0,0,0,0,-0.4007,-0.4007,-0.4006,-0.4006,-0.4007,-0.4009,-0.4007,-0.4005,-0.4015,-0.4012,-0.4016,-0.4017,-0.4016,-0.4016,-0.4015,-0.4009,-0.4009,-0.4018,-0.4018,-0.4018,-0.4018,0,0,0,0,0,0,0,-0.4007,-0.4007,-0.4001,-0.4006,-0.4006,-0.401,-0.4011,-0.4007,-0.4011,-0.4012,-0.4013,-0.4014,-0.4016,-0.4016,-0.4016,-0.4009,-0.4018,-0.4018,-0.4018,-0.4018,-0.3997,-0.3997,0,0,0,0,0,0,-0.4006,-0.4007,-0.4001,-0.4001,-0.4008,-0.401,-0.401,-0.4008,-0.4012,-0.4013,-0.4013,-0.4014,-0.4016,-0.4016,-0.4016,-0.4006,-0.4018,-0.4018,-0.4017,-0.3998,-0.3997,-0.3997,0,0,0,0,0,0,-0.4006,-0.4006,-0.4001,-0.4004,-0.4004,-0.4009,-0.4007,-0.4008,-0.4007,-0.4012,-0.4013,-0.4011,-0.4016,-0.4016,-0.4011,-0.4006,-0.4018,-0.4017,-0.3998,-0.3998,-0.3997,-0.3984,0,0,0,0,0,0,-0.4007,-0.4006,-0.4001,-0.4004,-0.4004,-0.3995,-0.4006,-0.4008,-0.4007,-0.4008,-0.4011,-0.4012,-0.4017,-0.4011,-0.4011,-0.4006,-0.4017,-0.3999,-0.3998,-0.3997,-0.3985,-0.3983,-0.3981,0,0,0,0,0,-0.4007,-0.3996,-0.4,-0.4,-0.3998,-0.3995,-0.3995,-0.4,-0.4006,-0.4002,-0.4006,-0.4012,-0.4007,-0.4011,-0.401,-0.4005,-0.3999,-0.3998,-0.3997,-0.3986,-0.3983,-0.3981,0,0,0,0,0,0,-0.3991,-0.3997,-0.4001,-0.3991,-0.3993,-0.3997,-0.3992,-0.3997,-0.3997,-0.3998,-0.4005,-0.4006,-0.4,-0.4002,-0.4007,-0.3997,-0.4004,-0.4003,-0.3995,-0.3993,-0.3991,-0.3991,-0.4017,0,0,0,0,0,-0.3987,-0.3984,-0.3989,-0.398,-0.398,-0.3986,-0.3985,-0.3989,-0.3991,-0.3991,-0.3994,-0.3996,-0.3996,-0.3994,-0.3994,-0.3986,-0.3987,-0.3982,-0.398,-0.3979,-0.3978,-0.3976,-0.3974,-0.3994,-0.3994,-0.3994,0,0,-0.3978,-0.398,-0.3977,-0.3977,-0.3978,-0.3976,-0.3986,-0.3982,-0.3981,-0.3991,-0.3986,-0.3989,-0.3992,-0.3986,-0.3983,-0.3987,-0.3973,-0.3978,-0.3977,-0.3976,-0.3975,-0.3973,-0.3972,-0.3994,-0.3994,-0.3994,0,0,-0.3959,-0.396,-0.3954,-0.3956,-0.3958,-0.3963,-0.3961,-0.3965,-0.3968,-0.3964,-0.3972,-0.3971,-0.3969,-0.3971,-0.3972,-0.3958,-0.3964,-0.3958,-0.3949,-0.3947,-0.3945,-0.3944,-0.3941,-0.3939,-0.3957,-0.3957,-0.3957,0,-0.3947,-0.3943,-0.395,-0.3946,-0.3947,-0.3957,-0.3951,-0.3953,-0.3955,-0.3956,-0.396,-0.3959,-0.3962,-0.3958,-0.3955,-0.3954,-0.3954,-0.3957,-0.3945,-0.3944,-0.3943,-0.3939,-0.3938,-0.3956,-0.3956,-0.3956,-0.3956,0,-0.3929,-0.3926,-0.3921,-0.3924,-0.3924,-0.3919,-0.3927,-0.3926,-0.3931,-0.3936,-0.3933,-0.3937,-0.3938,-0.3938,-0.3942,-0.3935,-0.3938,-0.3943,-0.3951,-0.394,-0.3937,-0.3936,-0.3955,-0.3955,-0.3956,-0.3956,0,0,-0.3898,-0.3907,-0.3905,-0.3908,-0.3913,-0.3911,-0.3909,-0.391,-0.3911,-0.3913,-0.3911,-0.3911,-0.3917,-0.3918,-0.3924,-0.3922,-0.3914,-0.3929,-0.3929,-0.3926,-0.3908,-0.3904,-0.3902,-0.3918,-0.3918,-0.3918,-0.3908,0,-0.3882,-0.3877,-0.3885,-0.3878,-0.3877,-0.3888,-0.3886,-0.389,-0.3895,-0.3895,-0.3901,-0.3901,-0.3909,-0.391,-0.3909,-0.3915,-0.391,-0.3916,-0.3918,-0.3918,-0.3917,-0.39,-0.3895,-0.3886,-0.3907,-0.3907,-0.3907,0,-0.3861,-0.3863,-0.3857,-0.3865,-0.3865,-0.3863,-0.3867,-0.3866,-0.3872,-0.3876,-0.3879,-0.3886,-0.3886,-0.3893,-0.3894,-0.3898,-0.3899,-0.3903,-0.3903,-0.3903,-0.3911,-0.3901,-0.3883,-0.3882,-0.3905,-0.3905,-0.3905,0,-0.3841,-0.3843,-0.384,-0.3842,-0.385,-0.3849,-0.3853,-0.3859,-0.386,-0.3864,-0.3866,-0.3869,-0.3871,-0.3874,-0.3883,-0.3888,-0.3883,-0.3891,-0.3887,-0.3887,-0.3885,-0.3885,-0.3868,-0.3886,-0.3886,-0.3886,-0.3886,0,-0.3822,-0.3818,-0.3831,-0.3829,-0.3826,-0.3836,-0.3833,-0.3838,-0.3844,-0.3844,-0.3855,-0.3855,-0.3866,-0.3869,-0.3876,-0.3876,-0.3877,-0.3881,-0.3883,-0.388,-0.388,-0.3881,-0.3882,-0.3886,-0.3886,-0.3886,-0.3886,0,-0.3799,-0.3807,-0.3805,-0.3815,-0.3817,-0.3815,-0.3823,-0.3823,-0.383,-0.383,-0.3831,-0.3842,-0.3845,-0.3855,-0.386,-0.3865,-0.3864,-0.3867,-0.3862,-0.3863,-0.3859,-0.386,-0.3842,-0.3841,-0.3859,-0.3859,-0.3859,0,-0.3786,-0.3783,-0.3793,-0.3795,-0.3798,-0.38,-0.3802,-0.3813,-0.3815,-0.3822,-0.3821,-0.3826,-0.383,-0.3835,-0.3844,-0.3849,-0.3853,-0.3847,-0.3854,-0.3852,-0.3854,-0.3854,-0.3855,-0.3845,-0.3845,-0.3844,-0.3844,0,-0.3763,-0.3768,-0.377,-0.3775,-0.3778,-0.3782,-0.3787,-0.3787,-0.38,-0.3802,-0.3806,-0.3809,-0.3816,-0.3821,-0.3828,-0.3833,-0.3841,-0.3842,-0.3842,-0.3839,-0.3836,-0.3839,-0.3858,-0.3842,-0.3842,-0.3843,-0.3843,-0.3843,-0.3745,-0.3744,-0.3752,-0.3755,-0.376,-0.3765,-0.3766,-0.3774,-0.3777,-0.3783,-0.379,-0.3794,-0.3802,-0.3812,-0.3817,-0.3821,-0.3825,-0.3824,-0.3824,-0.3824,-0.3823,-0.3836,-0.3823,-0.3823,-0.3823,-0.3823,-0.3823,0,-0.3723,-0.3729,-0.3732,-0.374,-0.3743,-0.3751,-0.3757,-0.376,-0.3763,-0.377,-0.3774,-0.378,-0.3786,-0.3796,-0.3803,-0.3804,-0.3808,-0.3806,-0.3806,-0.3807,-0.3819,-0.3819,-0.3802,-0.3802,-0.3802,-0.3802,-0.3802,-0.3802,-0.3712,-0.3712,-0.3719,-0.3722,-0.3728,-0.3732,-0.3735,-0.3741,-0.3747,-0.3753,-0.3758,-0.3764,-0.3773,-0.3781,-0.3788,-0.3791,-0.3793,-0.3789,-0.3794,-0.3804,-0.3806,-0.3808,-0.3808,-0.379,-0.379,-0.3782,-0.3782,-0.3782]}]]